Regional Weather Roundup
Issued by NWS

Home | Current Version | Previous Version | Graphics & Text | Print | Product List | Glossary On
Versions: 1 2 3 4 5 6 7 8 9 10 11 12 13 14 15 16 17 18 19 20 21 22 23 24 25 26 27 28 29 30 31 32 33 34 35 36 37 38 39 40 41 42 43 44 45 46 47 48 49 50
000
ASUS43 KDMX 021104
RWRIA

WEATHER ROUNDUP FOR IOWA
NATIONAL WEATHER SERVICE DES MOINES IA
  ISSUED BY NWS QUAD CITIES IA IL
500 AM CST MON MAR 02 2015

NOTE: "FAIR" INDICATES FEW OR NO CLOUDS BELOW 12,000 FEET WITH NO
SIGNIFICANT WEATHER AND/OR OBSTRUCTIONS TO VISIBILITY.

* - THESE STATIONS ARE NOT NWS STATIONS...THUS NOT UNDER NWS
QUALITY CONTROL.  THEY ALSO DO NOT REPORT WEATHER SUCH
AS PRECIPITATION OR FOG.

IAZ001>003-012>014-020>022-031>034-043>046-021200-
   NORTHWEST IOWA

CITY           SKY/WX    TMP DP  RH WIND       PRES   REMARKS
CARROLL *      PTCLDY    10   9  92 CALM      30.49S
CHEROKEE *     MOSUNNY    6   4  92 CALM      30.48S
DENNISON *     PTCLDY    12  10  92 CALM      30.46S
LE MARS *      PTCLDY     9   7  92 CALM      30.47F
ORANGE CITY *  PTCLDY    16  10  79 CALM      30.44F
SHELDON *      PTCLDY     5   1  85 CALM      30.44F
SIOUX CITY     PTCLDY    14   9  80 E5        30.48S WCI   6
SPENCER        MOCLDY     5   0  79 CALM      30.46R
STORM LAKE *   PTCLDY    14  10  85 N3        30.46S
$$

IAZ055>058-069>071-079>083-090>094-021200-
   SOUTHWEST IOWA

CITY           SKY/WX    TMP DP  RH WIND       PRES   REMARKS
ATLANTIC *       N/A     14  10  85 CALM      30.48F
AUDUBON *      CLEAR     10   7  85 CALM      30.48S
CLARINDA *     PTCLDY    21  19  93 N7        30.50S WCI  13
COUNCIL BLFS * PTCLDY    23  16  74 E6        30.46S WCI  16
CRESTON *      PTCLDY    18  12  79 NE6       30.48S WCI   9
HARLAN *       PTCLDY    12  12 100 CALM      30.52S
LAMONI         PTCLDY    23  16  74 N3        30.48F
RED OAK *      MOCLDY    19  16  86 N5        30.49S WCI  13
SHENANDOAH *   PTCLDY    23  19  86 NE8       30.48F WCI  14
$$

IAZ047>049-059>061-072>074-084-021200-
   CENTRAL IOWA

CITY           SKY/WX    TMP DP  RH WIND       PRES   REMARKS
AMES           CLEAR     10   6  84 SW6       30.50R WCI   0
ANKENY *       CLEAR     14  10  85 CALM      30.52R
BOONE *        FAIR      16  12  86 CALM      30.47R
CHARITON *     MOCLDY    19  14  79 N5        30.49S WCI  13
DES MOINES     CLEAR     20  12  71 CALM      30.51R
GRINNELL *     MOSUNNY   14  10  87 W3        30.49S
KNOXVILLE *    FAIR      18  12  79 N5        30.48F WCI  11
MARSHALLTOWN   PTCLDY     9   6  88 NW6       30.48R WCI  -1
NEWTON *       PTCLDY    18  12  79 W6        30.51R WCI   9
PELLA *        PTCLDY    16  14  91 N6        30.52R WCI   7
PERRY *          N/A     14  11  90 W6        30.50R WCI   5
$$

IAZ004>006-015-016-023>025-035-036-021200-
   NORTH CENTRAL IOWA

CITY           SKY/WX    TMP DP  RH WIND       PRES   REMARKS
ALGONA *       CLEAR      7   3  85 W3        30.48R
CLARION *      PTCLDY     1  -2  85 SW6       30.48R WCI -10
ESTHERVILLE    PTCLDY     4   2  91 W7        30.45S WCI  -8
FORT DODGE *   PTCLDY     5   1  85 CALM      30.49R
MASON CITY     PTCLDY     4   2  91 NW8       30.47R WCI  -9
FOREST CITY *  FAIR       5   1  85 CALM      30.46R
WEBSTER CITY * FAIR       9   9 100 W6        30.47S WCI  -1
IOWA FALLS *   FAIR       2  -2  85 W8        30.48R WCI -12
$$

IAZ007>011-017>019-026>030-037>042-050>054-066-021200-
   NORTHEAST IOWA

CITY           SKY/WX    TMP DP  RH WIND       PRES   REMARKS
CEDAR RAPIDS   PTCLDY     7   4  87 W12       30.48R WCI  -8
CHARLES CITY * PTCLDY     3   1  92 W7        30.46R WCI  -9
CLINTON *      PTCLDY     3   1  92 W5        30.50R WCI  -6
DECORAH *      PTCLDY    10   7  85 W3        30.42R
DUBUQUE        PTCLDY     6   2  83 CALM      30.44R
MONTICELLO *   PTCLDY     9   7  92 CALM      30.46S
OELWEIN *      MOCLDY     5   1  85 NW7       30.46R WCI  -7
WATERLOO       PTCLDY     5   3  91 W8        30.48R WCI  -8
$$

IAZ064-065-067-068-078-021200-
   EAST CENTRAL IOWA

CITY           SKY/WX    TMP DP  RH WIND       PRES   REMARKS
DAVENPORT      PTCLDY     6   1  80 W5        30.50R WCI  -3
IOWA CITY      PTCLDY    10   7  87 CALM      30.52R
MT. PLEASANT * PTCLDY    18  12  79 NW8       30.51R WCI   7
MUSCATINE *    PTCLDY    16  10  79 NW5       30.52R WCI   9
QUAD CITIES    PTCLDY     5   2  87 W5        30.50R WCI  -4
$$

IAZ062-063-075>077-085>089-095>099-021200-
   SOUTHEAST IOWA

CITY           SKY/WX    TMP DP  RH WIND       PRES   REMARKS
BURLINGTON     PTCLDY    19  13  77 NW7       30.50R WCI  10
FAIRFIELD *    PTCLDY    14   9  79 NW9       30.51R WCI   2
FORT MADISON * PTCLDY    18  12  79 NW8       30.51R WCI   7
KEOKUK *       MOCLDY    18  16  93 NW6       30.51R WCI   9
OSKALOOSA *    FAIR      16  11  82 N9        30.51R WCI   4
CENTERVILLE *  FAIR      19  16  86 N6        30.49F WCI  11
OTTUMWA        CLEAR     15  10  80 N8        30.50R WCI   4
WASHINGTON *   PTCLDY    14  14 100 NW7       30.51R WCI   4
$$

ABBREVIATIONS USED IN REMARKS
   TC - TEMPERATURES IN CELSIUS
  WCI - WIND CHILL INDEX
   HX - HEAT INDEX
  VSB - VISIBILITY
$$


USA.gov is the U.S. government's official web portal to all federal, state and local government web resources and services.